Location: Binningen
(47.7924°N, 8.7261°E)
Time: 16:59:50
(UTC+00:00)

ATLAS 2AS CENTAUR R/B - Pass Details

Date: 17 May 2021
Orbit: 949 x 1263 km, 63.7° (Epoch: 07 May)

Event Time Altitude Azimuth Distance (km) Brightness Sun altitude
Rises 20:35:59 0° 319° (NW) 4,101 7.8 -13.1°
Reaches altitude 10° 20:38:49 10° 317° (NW) 3,094 6.6 -13.5°
Maximum altitude 20:46:07 68° 236° (WSW) 1,187 2.9 -14.2°
Enters shadow 20:51:07 19° 158° (SSE) 2,265 3.8 -14.7°
